Date String (YYYY-MM-DD hh:mm:ss) UTC,Instrument flags,Ambient pressure (hPa),Sample flow (lpm),Bypass flow (lpm),Sample temperature (°C),Ambient temperature (°C),ASC tube jacket temperature (°C),LED temperature (°C),Box temperature (°C),Sample RH (%),Span deviation,Mass concentration (μg/m³),Mass concentration (μg/m³),Mass concentration (μg/m³)
DateTimeUTC,F1_M11,P_M11,Q1_M11,Q2_M11,T1_M11,T2_M11,T3_M11,T4_M11,T5_M11,U1_M11,ZSPAN_M11,X0_M11,X2_M11,X1_M11
2022-05-09 23:00:00,,0814.4,5.02,0.00,29.9,29.1,00.0,38.8,31.7,15.8,0000.0,0042.54,0010.37,0003.56
2022-05-09 23:01:00,,0814.4,5.01,0.00,29.8,27.2,00.0,38.8,31.2,15.8,0000.0,0043.46,0010.50,0003.57
2022-05-09 23:02:00,,0814.4,4.99,0.00,29.7,25.3,00.0,38.7,30.8,15.5,0000.0,0043.21,0010.41,0003.57
2022-05-09 23:03:00,,0814.4,5.00,0.00,29.6,25.4,00.0,38.7,30.8,15.8,0000.0,0043.31,0010.46,0003.55
2022-05-09 23:04:00,,0814.4,5.01,0.00,29.5,25.9,00.0,38.6,30.9,16.2,0000.0,0042.86,0010.49,0003.56
2022-05-09 23:05:00,,0814.4,5.01,0.00,29.5,26.5,00.0,38.6,31.1,16.3,0000.0,0042.01,0010.44,0003.56
2022-05-09 23:06:00,,0814.4,4.98,0.00,29.5,26.9,00.0,38.6,31.2,16.3,0000.0,0042.90,0010.45,0003.57
2022-05-09 23:07:00,,0814.4,5.01,0.00,29.5,27.3,00.0,38.5,31.2,16.2,0000.0,0043.59,0010.59,0003.59
2022-05-09 23:08:00,,0814.4,4.99,0.00,29.5,27.6,00.0,38.5,31.2,16.3,0000.0,0044.59,0010.53,0003.58
2022-05-09 23:09:00,,0814.9,5.01,0.00,29.5,27.9,00.0,38.5,31.2,16.4,0000.0,0046.01,0010.60,0003.58
2022-05-09 23:10:00,,0815.0,5.00,0.00,29.5,28.0,00.0,38.5,31.2,16.3,0000.0,0046.15,0010.61,0003.58
2022-05-09 23:11:00,,0814.8,4.99,0.00,29.5,28.2,00.0,38.5,31.2,16.3,0000.0,0047.63,0010.64,0003.59
2022-05-09 23:12:00,,0814.8,5.00,0.00,29.5,28.3,00.0,38.5,31.2,16.2,0000.0,0047.64,0010.64,0003.60
2022-05-09 23:13:00,,0814.6,4.99,0.00,29.5,28.4,00.0,38.5,31.3,16.3,0000.0,0047.39,0010.64,0003.62
2022-05-09 23:14:00,,0814.7,5.01,0.00,29.5,28.5,00.0,38.5,31.3,16.2,0000.0,0045.83,0010.54,0003.61
2022-05-09 23:15:00,,0814.7,4.99,0.00,29.5,28.6,00.0,38.5,31.3,16.5,0000.0,0045.88,0010.45,0003.58
2022-05-09 23:16:00,,0814.6,4.99,0.00,29.5,28.7,00.0,38.5,31.3,16.7,0000.0,0046.64,0010.40,0003.58
2022-05-09 23:17:00,,0814.8,5.00,0.00,29.5,28.7,00.0,38.5,31.3,16.6,0000.0,0048.20,0010.26,0003.56
2022-05-09 23:18:00,,0814.8,5.01,0.00,29.5,28.8,00.0,38.5,31.3,16.5,0000.0,0047.71,0010.24,0003.55
2022-05-09 23:19:00,,0814.7,5.00,0.00,29.5,28.8,00.0,38.5,31.3,16.5,0000.0,0047.12,0010.34,0003.55
2022-05-09 23:20:00,,0814.6,4.99,0.00,29.6,28.9,00.0,38.5,31.4,16.5,0000.0,0047.97,0010.45,0003.55
2022-05-09 23:21:00,,0814.7,5.00,0.00,29.6,28.9,00.0,38.5,31.4,16.6,0000.0,0049.04,0010.52,0003.55
2022-05-09 23:22:00,,0814.7,5.00,0.00,29.6,29.0,00.0,38.5,31.4,16.5,0000.0,0046.91,0010.45,0003.53
2022-05-09 23:23:00,,0814.7,5.00,0.00,29.6,29.0,00.0,38.5,31.4,16.4,0000.0,0047.55,0010.39,0003.52
2022-05-09 23:24:00,,0814.7,5.01,0.00,29.6,29.0,00.0,38.5,31.5,16.4,0000.0,0046.79,0010.45,0003.49
2022-05-09 23:25:00,,0814.7,4.99,0.00,29.6,29.0,00.0,38.5,31.5,16.4,0000.0,0047.91,0010.57,0003.48
2022-05-09 23:26:00,,0814.7,5.00,0.00,29.6,29.0,00.0,38.6,31.5,16.3,0000.0,0049.23,0010.79,0003.50
2022-05-09 23:27:00,,0814.8,5.01,0.00,29.6,29.0,00.0,38.6,31.5,16.7,0000.0,0049.54,0010.99,0003.50
2022-05-09 23:28:00,,0814.8,5.00,0.00,29.7,29.0,00.0,38.6,31.5,16.8,0000.0,0047.81,0011.12,0003.51
2022-05-09 23:29:00,,0814.8,4.99,0.00,29.7,29.0,00.0,38.6,31.5,16.8,0000.0,0047.20,0011.06,0003.51
2022-05-09 23:30:00,,0814.8,4.99,0.00,29.7,29.1,00.0,38.6,31.5,17.3,0000.0,0047.97,0010.91,0003.49
2022-05-09 23:31:00,,0814.9,5.00,0.00,29.7,29.1,00.0,38.6,31.5,16.9,0000.0,0046.00,0010.70,0003.49
2022-05-09 23:32:00,,0814.9,5.00,0.00,29.7,29.2,00.0,38.6,31.5,16.7,0000.0,0044.49,0010.62,0003.47
2022-05-09 23:33:00,,0814.9,5.00,0.00,29.8,29.2,00.0,38.6,31.6,16.6,0000.0,0045.67,0010.68,0003.47
2022-05-09 23:34:00,,0814.8,5.00,0.00,29.8,29.2,00.0,38.6,31.6,16.6,0000.0,0046.32,0010.86,0003.48
2022-05-09 23:35:00,,0814.8,5.00,0.00,29.8,29.2,00.0,38.7,31.6,16.6,0000.0,0047.96,0010.92,0003.50
2022-05-09 23:36:00,,0814.8,5.01,0.00,29.8,29.2,00.0,38.7,31.6,16.8,0000.0,0048.59,0010.96,0003.51
2022-05-09 23:37:00,,0814.9,5.00,0.00,29.8,29.2,00.0,38.7,31.7,16.4,0000.0,0050.03,0010.77,0003.51
2022-05-09 23:38:00,,0814.9,5.00,0.00,29.8,29.2,00.0,38.7,31.7,16.8,0000.0,0050.83,0010.74,0003.51
2022-05-09 23:39:00,,0814.9,4.99,0.00,29.8,29.2,00.0,38.7,31.7,16.6,0000.0,0051.09,0010.74,0003.51
2022-05-09 23:40:00,,0815.0,5.00,0.00,29.8,29.3,00.0,38.7,31.7,16.8,0000.0,0053.68,0010.86,0003.51
2022-05-09 23:41:00,,0815.0,5.00,0.00,29.9,29.3,00.0,38.7,31.7,16.8,0000.0,0054.25,0011.03,0003.51
2022-05-09 23:42:00,,0815.0,5.01,0.00,29.9,29.3,00.0,38.8,31.7,16.4,0000.0,0054.49,0011.18,0003.50
2022-05-09 23:43:00,,0815.0,5.00,0.00,29.9,29.3,00.0,38.8,31.7,16.3,0000.0,0054.51,0011.27,0003.50
2022-05-09 23:44:00,,0815.0,4.99,0.00,29.9,29.3,00.0,38.8,31.7,16.3,0000.0,0054.69,0011.28,0003.51
2022-05-09 23:45:00,,0815.0,4.98,0.00,29.9,29.3,00.0,38.8,31.8,16.4,0000.0,0055.10,0011.23,0003.51
2022-05-09 23:46:00,,0814.9,5.00,0.00,29.9,29.3,00.0,38.8,31.8,16.3,0000.0,0054.34,0011.24,0003.51
2022-05-09 23:47:00,,0815.0,5.02,0.00,29.9,29.4,00.0,38.8,31.8,16.2,0000.0,0054.43,0011.40,0003.53
2022-05-09 23:48:00,,0815.0,5.01,0.00,29.9,29.4,00.0,38.8,31.8,16.5,0000.0,0054.05,0011.56,0003.53
2022-05-09 23:49:00,,0814.9,5.01,0.00,30.0,29.3,00.0,38.8,31.8,16.3,0000.0,0053.98,0011.63,0003.54
2022-05-09 23:50:00,,0815.0,5.00,0.00,30.0,29.3,00.0,38.9,31.7,16.6,0000.0,0054.38,0011.75,0003.56
2022-05-09 23:51:00,,0815.0,5.00,0.00,29.9,27.4,00.0,38.9,31.3,16.7,0000.0,0053.30,0011.86,0003.58
2022-05-09 23:52:00,,0815.0,4.99,0.00,29.7,25.3,00.0,38.8,30.8,16.8,0000.0,0051.39,0011.92,0003.59
2022-05-09 23:53:00,,0815.0,5.00,0.00,29.6,25.2,00.0,38.7,30.8,17.2,0000.0,0053.12,0012.10,0003.62
2022-05-09 23:54:00,,0815.1,5.01,0.00,29.5,25.7,00.0,38.7,30.9,17.1,0000.0,0055.92,0012.25,0003.63
2022-05-09 23:55:00,,0815.1,5.00,0.00,29.5,26.2,00.0,38.6,31.0,17.1,0000.0,0056.11,0012.36,0003.64
2022-05-09 23:56:00,,0815.1,5.00,0.00,29.5,26.7,00.0,38.6,31.1,16.9,0000.0,0056.57,0012.55,0003.65
2022-05-09 23:57:00,,0815.4,5.00,0.00,29.4,27.1,00.0,38.6,31.1,16.9,0000.0,0057.40,0012.60,0003.66
2022-05-09 23:58:00,,0815.2,4.99,0.00,29.4,27.4,00.0,38.5,31.1,17.0,0000.0,0058.64,0012.50,0003.66
2022-05-09 23:59:00,,0815.3,5.00,0.00,29.4,27.7,00.0,38.5,31.2,16.8,0000.0,0059.79,0012.48,0003.68
